| time (UTC) | temp C | wind direction | speed KPH | gust KPH | rain 1hr cm | rain 24hr cm | rain mn cm | humidity % | barometer mb |
| 20260502224050 | 18 | 165 | 3.2 | 12.9 | 0.00 | 0.00 | 0.00 | 35 | 1010.3 |
| 20260502223550 | 17 | 216 | 4.8 | 12.9 | 0.00 | 0.00 | 0.00 | 34 | 1010.2 |
| 20260502223051 | 18 | 166 | 3.2 | 17.7 | 0.00 | 0.00 | 0.00 | 34 | 1010.3 |
| 20260502222550 | 18 | 244 | 4.8 | 19.3 | 0.00 | 0.00 | 0.00 | 33 | 1010.3 |
| 20260502222054 | 18 | 189 | 6.4 | 19.3 | 0.00 | 0.00 | 0.00 | 31 | 1010.4 |
| 20260502221552 | 18 | 194 | 4.8 | 22.5 | 0.00 | 0.00 | 0.00 | 33 | 1010.4 |
| 20260502221055 | 19 | 234 | 6.4 | 22.5 | 0.00 | 0.00 | 0.00 | 31 | 1010.4 |
| 20260502220550 | 18 | 323 | 8.0 | 22.5 | 0.00 | 0.00 | 0.00 | 33 | 1010.6 |
| 20260502220054 | 18 | 188 | 6.4 | 19.3 | 0.00 | 0.00 | 0.00 | 33 | 1010.6 |
| 20260502215550 | 18 | 236 | 4.8 | 14.5 | 0.00 | 0.00 | 0.00 | 32 | 1010.7 |
| 20260502215049 | 18 | 281 | 6.4 | 19.3 | 0.00 | 0.00 | 0.00 | 32 | 1010.8 |
| 20260502214553 | 18 | 219 | 4.8 | 19.3 | 0.00 | 0.00 | 0.00 | 32 | 1010.7 |
| 20260502214050 | 18 | 263 | 6.4 | 16.1 | 0.00 | 0.00 | 0.00 | 31 | 1010.8 |
| 20260502213550 | 18 | 288 | 6.4 | 16.1 | 0.00 | 0.00 | 0.00 | 32 | 1010.9 |
| 20260502213053 | 18 | 196 | 4.8 | 16.1 | 0.00 | 0.00 | 0.00 | 34 | 1010.9 |
| 20260502212550 | 18 | 286 | 4.8 | 17.7 | 0.00 | 0.00 | 0.00 | 33 | 1011.0 |
| 20260502212050 | 17 | 257 | 6.4 | 17.7 | 0.00 | 0.00 | 0.00 | 35 | 1011.1 |
| 20260502211557 | 17 | 262 | 4.8 | 20.9 | 0.00 | 0.00 | 0.00 | 35 | 1011.2 |
| 20260502211053 | 17 | 179 | 8.0 | 20.9 | 0.00 | 0.00 | 0.00 | 33 | 1011.2 |
| 20260502210553 | 17 | 261 | 6.4 | 19.3 | 0.00 | 0.00 | 0.00 | 31 | 1011.3 |
| 20260502210054 | 17 | 281 | 9.7 | 19.3 | 0.00 | 0.00 | 0.00 | 32 | 1011.4 |
| 20260502205549 | 18 | 257 | 4.8 | 22.5 | 0.00 | 0.00 | 0.00 | 33 | 1011.5 |
| 20260502205049 | 18 | 224 | 4.8 | 22.5 | 0.00 | 0.00 | 0.00 | 33 | 1011.5 |
| 20260502204553 | 18 | 204 | 3.2 | 20.9 | 0.00 | 0.00 | 0.00 | 32 | 1011.6 |
| 20260502204050 | 17 | 196 | 4.8 | 24.1 | 0.00 | 0.00 | 0.00 | 34 | 1011.7 |
| 20260502203550 | 17 | 274 | 8.0 | 24.1 | 0.00 | 0.00 | 0.00 | 34 | 1011.8 |
| 20260502203054 | 17 | 192 | 8.0 | 20.9 | 0.00 | 0.00 | 0.00 | 31 | 1011.8 |
| 20260502202550 | 17 | 235 | 3.2 | 24.1 | 0.00 | 0.00 | 0.00 | 36 | 1011.9 |
| 20260502202050 | 17 | 225 | 9.7 | 24.1 | 0.00 | 0.00 | 0.00 | 34 | 1012.1 |
| 20260502201558 | 17 | 190 | 8.0 | 17.7 | 0.00 | 0.00 | 0.00 | 36 | 1012.1 |
| 20260502201050 | 17 | 283 | 8.0 | 17.7 | 0.00 | 0.00 | 0.00 | 37 | 1012.2 |
| 20260502200550 | 17 | 230 | 8.0 | 19.3 | 0.00 | 0.00 | 0.00 | 33 | 1012.3 |
| 20260502200139 | 17 | 249 | 6.4 | 19.3 | 0.00 | 0.00 | 0.00 | 35 | 1012.4 |
| 20260502195550 | 17 | 268 | 4.8 | 16.1 | 0.00 | 0.00 | 0.00 | 34 | 1012.6 |
| 20260502195050 | 17 | 304 | 3.2 | 16.1 | 0.00 | 0.00 | 0.00 | 36 | 1012.7 |
| 20260502194554 | 16 | 198 | 4.8 | 16.1 | 0.00 | 0.00 | 0.00 | 36 | 1012.9 |
| 20260502194052 | 16 | 279 | 3.2 | 17.7 | 0.00 | 0.00 | 0.00 | 35 | 1012.9 |
| 20260502193549 | 16 | 275 | 6.4 | 19.3 | 0.00 | 0.00 | 0.00 | 33 | 1013.0 |
| 20260502193057 | 16 | 229 | 6.4 | 19.3 | 0.00 | 0.00 | 0.00 | 35 | 1013.1 |
| 20260502192551 | 16 | 173 | 6.4 | 17.7 | 0.00 | 0.00 | 0.00 | 35 | 1013.1 |
| 20260502192050 | 16 | 0 | 3.2 | 17.7 | 0.00 | 0.00 | 0.00 | 37 | 1013.4 |
| 20260502191602 | 16 | 313 | 4.8 | 17.7 | 0.00 | 0.00 | 0.00 | 35 | 1013.5 |
| 20260502191053 | 16 | 242 | 3.2 | 19.3 | 0.00 | 0.00 | 0.00 | 35 | 1013.5 |
| 20260502190551 | 15 | 267 | 8.0 | 19.3 | 0.00 | 0.00 | 0.00 | 33 | 1013.7 |
| 20260502190054 | 16 | 275 | 8.0 | 19.3 | 0.00 | 0.00 | 0.00 | 34 | 1013.8 |
| 20260502185553 | 15 | 251 | 4.8 | 22.5 | 0.00 | 0.00 | 0.00 | 38 | 1013.8 |
| 20260502185050 | 15 | 306 | 8.0 | 22.5 | 0.00 | 0.00 | 0.00 | 35 | 1013.9 |
| 20260502184557 | 15 | 278 | 9.7 | 22.5 | 0.00 | 0.00 | 0.00 | 35 | 1013.9 |
| 20260502184050 | 15 | 172 | 4.8 | 22.5 | 0.00 | 0.00 | 0.00 | 34 | 1014.0 |
| 20260502183550 | 15 | 262 | 8.0 | 19.3 | 0.00 | 0.00 | 0.00 | 34 | 1014.1 |
| 20260502183052 | 15 | 274 | 4.8 | 19.3 | 0.00 | 0.00 | 0.00 | 42 | 1014.0 |
| 20260502182551 | 15 | 307 | 9.7 | 19.3 | 0.00 | 0.00 | 0.00 | 34 | 1014.2 |
| 20260502182050 | 15 | 162 | 8.0 | 19.3 | 0.00 | 0.00 | 0.00 | 35 | 1014.3 |
| 20260502181552 | 14 | 267 | 9.7 | 19.3 | 0.00 | 0.00 | 0.00 | 33 | 1014.3 |
| 20260502181051 | 15 | 252 | 8.0 | 20.9 | 0.00 | 0.00 | 0.00 | 38 | 1014.5 |
| 20260502180551 | 15 | 311 | 11.3 | 20.9 | 0.00 | 0.00 | 0.00 | 35 | 1014.6 |
| 20260502164050 | 13 | 288 | 8.0 | 22.5 | 0.00 | 0.00 | 0.00 | 41 | 1015.7 |
| 20260502163551 | 12 | 290 | 9.7 | 22.5 | 0.00 | 0.00 | 0.00 | 37 | 1015.7 |
| 20260502163102 | 13 | 263 | 11.3 | 22.5 | 0.00 | 0.00 | 0.00 | 38 | 1015.8 |
| 20260502162551 | 13 | 0 | 6.4 | 20.9 | 0.00 | 0.00 | 0.00 | 41 | 1015.8 |
| 20260502162049 | 13 | 260 | 6.4 | 20.9 | 0.00 | 0.00 | 0.00 | 37 | 1016.0 |
| 20260502161558 | 12 | 263 | 6.4 | 20.9 | 0.00 | 0.00 | 0.00 | 40 | 1016.0 |
| 20260502161049 | 12 | 234 | 6.4 | 20.9 | 0.00 | 0.00 | 0.00 | 40 | 1016.0 |
| 20260502160549 | 12 | 294 | 9.7 | 24.1 | 0.00 | 0.00 | 0.00 | 40 | 1016.0 |
| 20260502152051 | 11 | 262 | 6.4 | 20.9 | 0.00 | 0.00 | 0.00 | 46 | 1016.3 |
| 20260502151557 | 11 | 229 | 8.0 | 20.9 | 0.00 | 0.00 | 0.00 | 43 | 1016.3 |
| 20260502151051 | 11 | 240 | 9.7 | 20.9 | 0.00 | 0.00 | 0.00 | 45 | 1016.3 |
| 20260502150550 | 11 | 309 | 9.7 | 19.3 | 0.00 | 0.00 | 0.00 | 47 | 1016.3 |
| 20260502150109 | 11 | 287 | 9.7 | 19.3 | 0.00 | 0.00 | 0.00 | 45 | 1016.4 |
| 20260502130551 | 5 | 169 | 0.0 | 4.8 | 0.00 | 0.00 | 0.00 | 81 | 1016.9 |
| 20260502130111 | 4 | 0 | 0.0 | 4.8 | 0.00 | 0.00 | 0.00 | 84 | 1016.9 |
| 20260502123549 | 1 | 0 | 0.0 | 1.6 | 0.00 | 0.00 | 0.00 | 96 | 1016.9 |
| 20260502123103 | 0 | 0 | 0.0 | 1.6 | 0.00 | 0.00 | 0.00 | 96 | 1016.9 |
| 20260502122549 | 0 | 0 | 0.0 | 0.0 | 0.00 | 0.00 | 0.00 | 96 | 1016.8 |
| 20260502122050 | 0 | 0 | 0.0 | 0.0 | 0.00 | 0.00 | 0.00 | 95 | 1016.8 |
| 20260502121558 | -1 | 0 | 0.0 | 0.0 | 0.00 | 0.00 | 0.00 | 95 | 1016.7 |
| 20260502121050 | -1 | 0 | 0.0 | 0.0 | 0.00 | 0.00 | 0.00 | 95 | 1016.8 |
| 20260502120549 | -1 | 0 | 0.0 | 0.0 | 0.00 | 0.00 | 0.00 | 95 | 1016.8 |
| 20260502115549 | -1 | 0 | 0.0 | 0.0 | 0.00 | 0.00 | 0.00 | 94 | 1016.8 |
| 20260502115054 | -1 | 0 | 0.0 | 0.0 | 0.00 | 0.00 | 0.00 | 94 | 1016.8 |
| 20260502114605 | -1 | 0 | 0.0 | 0.0 | 0.00 | 0.00 | 0.00 | 94 | 1016.7 |
| 20260502114050 | -1 | 0 | 0.0 | 0.0 | 0.00 | 0.00 | 0.00 | 94 | 1016.6 |
| 20260502113550 | -1 | 0 | 0.0 | 0.0 | 0.00 | 0.00 | 0.00 | 94 | 1016.6 |
| 20260502113057 | -1 | 0 | 0.0 | 0.0 | 0.00 | 0.00 | 0.00 | 94 | 1016.5 |
| 20260502112549 | -1 | 0 | 0.0 | 0.0 | 0.00 | 0.00 | 0.00 | 94 | 1016.5 |
| 20260502112049 | -1 | 0 | 0.0 | 0.0 | 0.00 | 0.00 | 0.00 | 93 | 1016.5 |
| 20260502111558 | -1 | 0 | 0.0 | 0.0 | 0.00 | 0.00 | 0.00 | 93 | 1016.5 |
| 20260502111050 | -1 | 0 | 0.0 | 0.0 | 0.00 | 0.00 | 0.00 | 94 | 1016.5 |
| 20260502110551 | -1 | 0 | 0.0 | 0.0 | 0.00 | 0.00 | 0.00 | 93 | 1016.6 |
| 20260502110055 | -1 | 0 | 0.0 | 0.0 | 0.00 | 0.00 | 0.00 | 93 | 1016.6 |
| 20260502105551 | -1 | 0 | 0.0 | 0.0 | 0.00 | 0.00 | 0.00 | 93 | 1016.6 |
| 20260502105050 | -1 | 0 | 0.0 | 0.0 | 0.00 | 0.00 | 0.00 | 93 | 1016.5 |
| 20260502104558 | -1 | 0 | 0.0 | 0.0 | 0.00 | 0.00 | 0.00 | 93 | 1016.6 |
| 20260502104049 | -1 | 0 | 0.0 | 0.0 | 0.00 | 0.00 | 0.00 | 93 | 1016.5 |
| 20260502103550 | -1 | 0 | 0.0 | 0.0 | 0.00 | 0.00 | 0.00 | 93 | 1016.6 |
| 20260502103054 | -1 | 0 | 0.0 | 0.0 | 0.00 | 0.00 | 0.00 | 93 | 1016.5 |
| 20260502102550 | -1 | 0 | 0.0 | 0.0 | 0.00 | 0.00 | 0.00 | 93 | 1016.5 |
| 20260502102050 | -1 | 0 | 0.0 | 0.0 | 0.00 | 0.00 | 0.00 | 93 | 1016.5 |
| 20260502101605 | -1 | 0 | 0.0 | 0.0 | 0.00 | 0.00 | 0.00 | 93 | 1016.5 |
| 20260502101049 | -1 | 0 | 0.0 | 0.0 | 0.00 | 0.00 | 0.00 | 93 | 1016.5 |
| 20260502100549 | -1 | 0 | 0.0 | 0.0 | 0.00 | 0.00 | 0.00 | 93 | 1016.6 |
| 20260502091052 | -1 | 0 | 0.0 | 0.0 | 0.00 | 0.00 | 0.00 | 92 | 1016.5 |
| 20260502090549 | -1 | 0 | 0.0 | 0.0 | 0.00 | 0.00 | 0.00 | 92 | 1016.5 |
| 20260502080105 | -1 | 0 | 0.0 | 0.0 | 0.00 | 0.00 | 0.00 | 91 | 1016.6 |
| 20260502071049 | -1 | 0 | 0.0 | 0.0 | 0.00 | 0.00 | 0.00 | 90 | 1016.6 |
| 20260502070550 | -1 | 0 | 0.0 | 0.0 | 0.00 | 0.00 | 0.00 | 89 | 1016.7 |
| 20260502070057 | -1 | 0 | 0.0 | 0.0 | 0.00 | 0.00 | 0.00 | 89 | 1016.6 |
| 20260502065550 | -1 | 0 | 0.0 | 0.0 | 0.00 | 0.00 | 0.00 | 88 | 1016.7 |
| 20260502065050 | -1 | 0 | 0.0 | 0.0 | 0.00 | 0.00 | 0.00 | 88 | 1016.7 |
| 20260502064558 | 0 | 0 | 0.0 | 0.0 | 0.00 | 0.00 | 0.00 | 88 | 1016.7 |
| 20260502064050 | 0 | 0 | 0.0 | 0.0 | 0.00 | 0.00 | 0.00 | 88 | 1016.8 |
| 20260502063550 | 0 | 0 | 0.0 | 0.0 | 0.00 | 0.00 | 0.00 | 87 | 1016.8 |
| 20260502063114 | 0 | 0 | 0.0 | 0.0 | 0.00 | 0.00 | 0.00 | 87 | 1016.8 |
| 20260502062549 | 0 | 0 | 0.0 | 0.0 | 0.00 | 0.00 | 0.00 | 87 | 1016.9 |
| 20260502062050 | 0 | 0 | 0.0 | 0.0 | 0.00 | 0.00 | 0.00 | 87 | 1016.9 |
| 20260502061559 | 0 | 0 | 0.0 | 0.0 | 0.00 | 0.00 | 0.00 | 87 | 1016.9 |
| 20260502061049 | 0 | 0 | 0.0 | 0.0 | 0.00 | 0.00 | 0.00 | 87 | 1017.0 |
| 20260502060549 | 0 | 0 | 0.0 | 0.0 | 0.00 | 0.00 | 0.00 | 87 | 1017.0 |
| 20260502060059 | 0 | 0 | 0.0 | 0.0 | 0.00 | 0.00 | 0.00 | 86 | 1017.1 |
| 20260502055550 | 0 | 0 | 0.0 | 0.0 | 0.00 | 0.00 | 0.00 | 86 | 1017.1 |
| 20260502055050 | 0 | 0 | 0.0 | 0.0 | 0.00 | 0.00 | 0.00 | 86 | 1017.1 |
| 20260502054601 | 0 | 0 | 0.0 | 0.0 | 0.00 | 0.00 | 0.00 | 86 | 1017.1 |
| 20260502054050 | 0 | 0 | 0.0 | 0.0 | 0.00 | 0.00 | 0.00 | 86 | 1017.2 |
| 20260502053550 | 0 | 0 | 0.0 | 0.0 | 0.00 | 0.00 | 0.00 | 84 | 1017.1 |
| 20260502053059 | 0 | 0 | 0.0 | 0.0 | 0.00 | 0.00 | 0.00 | 84 | 1017.1 |
| 20260502052549 | 0 | 0 | 0.0 | 0.0 | 0.00 | 0.00 | 0.00 | 83 | 1017.1 |
| 20260502052050 | 0 | 0 | 0.0 | 0.0 | 0.00 | 0.00 | 0.00 | 82 | 1017.1 |
| 20260502051554 | 0 | 0 | 0.0 | 0.0 | 0.00 | 0.00 | 0.00 | 82 | 1017.1 |
| 20260502051050 | 0 | 0 | 0.0 | 0.0 | 0.00 | 0.00 | 0.00 | 82 | 1016.9 |
| 20260502050550 | 0 | 0 | 0.0 | 0.0 | 0.00 | 0.00 | 0.00 | 82 | 1016.8 |
| 20260502050053 | 0 | 0 | 0.0 | 0.0 | 0.00 | 0.00 | 0.00 | 82 | 1016.8 |
| 20260502045550 | 1 | 0 | 0.0 | 0.0 | 0.00 | 0.00 | 0.00 | 81 | 1016.8 |
| 20260502045050 | 1 | 0 | 0.0 | 0.0 | 0.00 | 0.00 | 0.00 | 81 | 1016.8 |
| 20260502044552 | 1 | 0 | 0.0 | 0.0 | 0.00 | 0.00 | 0.00 | 80 | 1016.8 |
| 20260502044053 | 1 | 0 | 0.0 | 0.0 | 0.00 | 0.00 | 0.00 | 80 | 1016.9 |
| 20260502043549 | 1 | 0 | 0.0 | 0.0 | 0.00 | 0.00 | 0.00 | 80 | 1016.9 |
| 20260502043058 | 1 | 0 | 0.0 | 0.0 | 0.00 | 0.00 | 0.00 | 79 | 1016.9 |
| 20260502042550 | 1 | 0 | 0.0 | 0.0 | 0.00 | 0.00 | 0.00 | 79 | 1017.0 |
| 20260502042051 | 1 | 0 | 0.0 | 0.0 | 0.00 | 0.00 | 0.00 | 78 | 1016.9 |
| 20260502041556 | 1 | 0 | 0.0 | 1.6 | 0.00 | 0.00 | 0.00 | 77 | 1016.9 |
| 20260502041049 | 1 | 0 | 0.0 | 1.6 | 0.00 | 0.00 | 0.00 | 76 | 1017.1 |
| 20260502040549 | 2 | 0 | 0.0 | 1.6 | 0.00 | 0.00 | 0.00 | 77 | 1017.0 |
| 20260502035550 | 2 | 0 | 0.0 | 0.0 | 0.00 | 0.00 | 0.00 | 75 | 1017.0 |
| 20260502035049 | 2 | 0 | 0.0 | 0.0 | 0.00 | 0.00 | 0.00 | 75 | 1017.1 |
| 20260502034555 | 2 | 0 | 0.0 | 0.0 | 0.00 | 0.00 | 0.00 | 75 | 1017.0 |
| 20260502034049 | 2 | 0 | 0.0 | 0.0 | 0.00 | 0.00 | 0.00 | 73 | 1017.0 |
| 20260502033550 | 2 | 0 | 0.0 | 0.0 | 0.00 | 0.00 | 0.00 | 72 | 1017.0 |
| 20260502033052 | 2 | 0 | 0.0 | 0.0 | 0.00 | 0.00 | 0.00 | 71 | 1016.9 |
| 20260502032549 | 2 | 0 | 0.0 | 0.0 | 0.00 | 0.00 | 0.00 | 70 | 1017.0 |
| 20260502032049 | 3 | 0 | 0.0 | 0.0 | 0.00 | 0.00 | 0.00 | 70 | 1017.0 |
| 20260502031553 | 3 | 0 | 0.0 | 0.0 | 0.00 | 0.00 | 0.00 | 68 | 1017.1 |
| 20260502031050 | 3 | 0 | 0.0 | 0.0 | 0.00 | 0.00 | 0.00 | 69 | 1016.9 |
| 20260502030550 | 3 | 0 | 0.0 | 0.0 | 0.00 | 0.00 | 0.00 | 66 | 1017.0 |
| 20260502030054 | 3 | 0 | 0.0 | 0.0 | 0.00 | 0.00 | 0.00 | 65 | 1016.9 |
| 20260502025549 | 3 | 0 | 0.0 | 0.0 | 0.00 | 0.00 | 0.00 | 64 | 1017.0 |
| 20260502025053 | 4 | 0 | 0.0 | 1.6 | 0.00 | 0.00 | 0.00 | 65 | 1017.0 |
| 20260502024552 | 4 | 0 | 0.0 | 1.6 | 0.00 | 0.00 | 0.00 | 64 | 1017.0 |
| 20260502024050 | 4 | 0 | 0.0 | 0.0 | 0.00 | 0.00 | 0.00 | 63 | 1016.9 |
| 20260502023550 | 5 | 0 | 0.0 | 0.0 | 0.00 | 0.00 | 0.00 | 62 | 1017.1 |
| 20260502023053 | 5 | 0 | 0.0 | 0.0 | 0.00 | 0.00 | 0.00 | 61 | 1017.0 |
| 20260502022550 | 5 | 0 | 0.0 | 0.0 | 0.00 | 0.00 | 0.00 | 60 | 1017.0 |
| 20260502022051 | 6 | 0 | 0.0 | 0.0 | 0.00 | 0.00 | 0.00 | 58 | 1016.8 |
| 20260502021553 | 6 | 0 | 0.0 | 0.0 | 0.00 | 0.00 | 0.00 | 57 | 1016.8 |
| 20260502021049 | 6 | 0 | 0.0 | 0.0 | 0.00 | 0.00 | 0.00 | 55 | 1016.6 |
| 20260502020549 | 7 | 0 | 0.0 | 0.0 | 0.00 | 0.00 | 0.00 | 54 | 1016.6 |
| 20260502020054 | 7 | 0 | 0.0 | 0.0 | 0.00 | 0.00 | 0.00 | 48 | 1016.6 |
| 20260502015550 | 8 | 0 | 0.0 | 0.0 | 0.00 | 0.00 | 0.00 | 46 | 1016.5 |
| 20260502015050 | 8 | 0 | 0.0 | 0.0 | 0.00 | 0.00 | 0.00 | 44 | 1016.4 |
| 20260502014553 | 8 | 0 | 0.0 | 1.6 | 0.00 | 0.00 | 0.00 | 45 | 1016.4 |
| 20260502014049 | 8 | 0 | 0.0 | 3.2 | 0.00 | 0.00 | 0.00 | 44 | 1016.3 |
| 20260502013553 | 8 | 0 | 0.0 | 6.4 | 0.00 | 0.00 | 0.00 | 44 | 1016.4 |
| 20260502013054 | 8 | 0 | 0.0 | 6.4 | 0.00 | 0.00 | 0.00 | 42 | 1016.3 |
| 20260502012550 | 8 | 0 | 0.0 | 6.4 | 0.00 | 0.00 | 0.00 | 43 | 1016.3 |
| 20260502012050 | 9 | 0 | 0.0 | 4.8 | 0.00 | 0.00 | 0.00 | 42 | 1016.3 |
| 20260502011550 | 9 | 287 | 0.0 | 6.4 | 0.00 | 0.00 | 0.00 | 41 | 1016.3 |
| 20260502011049 | 9 | 284 | 1.6 | 6.4 | 0.00 | 0.00 | 0.00 | 42 | 1016.3 |
| 20260502010550 | 9 | 0 | 3.2 | 9.7 | 0.00 | 0.00 | 0.00 | 41 | 1016.3 |
| 20260502010053 | 9 | 350 | 1.6 | 9.7 | 0.00 | 0.00 | 0.00 | 41 | 1016.3 |
| 20260502005551 | 10 | 345 | 1.6 | 8.0 | 0.00 | 0.00 | 0.00 | 39 | 1016.3 |
| 20260502005049 | 10 | 306 | 1.6 | 6.4 | 0.00 | 0.00 | 0.00 | 40 | 1016.3 |
| 20260502004551 | 10 | 334 | 0.0 | 8.0 | 0.00 | 0.00 | 0.00 | 40 | 1016.3 |
| 20260502004051 | 10 | 344 | 3.2 | 8.0 | 0.00 | 0.00 | 0.00 | 36 | 1016.2 |
| 20260502003549 | 10 | 342 | 3.2 | 9.7 | 0.00 | 0.00 | 0.00 | 37 | 1016.2 |
| 20260502003052 | 10 | 344 | 3.2 | 12.9 | 0.00 | 0.00 | 0.00 | 37 | 1016.1 |
| 20260502002550 | 10 | 0 | 3.2 | 12.9 | 0.00 | 0.00 | 0.00 | 39 | 1016.2 |
| 20260502002050 | 10 | 336 | 6.4 | 12.9 | 0.00 | 0.00 | 0.00 | 37 | 1016.1 |
| 20260502001549 | 10 | 350 | 1.6 | 11.3 | 0.00 | 0.00 | 0.00 | 38 | 1016.1 |
| 20260502001049 | 10 | 9 | 4.8 | 17.7 | 0.00 | 0.00 | 0.00 | 36 | 1016.0 |
| 20260502000549 | 11 | 14 | 4.8 | 17.7 | 0.00 | 0.00 | 0.00 | 36 | 1016.0 |
| 20260502000100 | 11 | 310 | 8.0 | 17.7 | 0.00 | 0.00 | 0.00 | 35 | 1015.8 |
| 20260501235551 | 11 | 313 | 6.4 | 17.7 | 0.00 | 0.00 | 0.00 | 35 | 1016.0 |
| 20260501235052 | 11 | 274 | 6.4 | 17.7 | 0.00 | 0.00 | 0.00 | 35 | 1015.9 |
| 20260501234552 | 11 | 296 | 6.4 | 17.7 | 0.00 | 0.00 | 0.00 | 38 | 1015.9 |
| 20260501234049 | 11 | 327 | 6.4 | 17.7 | 0.00 | 0.00 | 0.00 | 36 | 1016.0 |
| 20260501233550 | 11 | 314 | 3.2 | 14.5 | 0.00 | 0.00 | 0.00 | 38 | 1015.9 |
| 20260501233050 | 10 | 337 | 4.8 | 14.5 | 0.00 | 0.00 | 0.00 | 37 | 1016.0 |
| 20260501232550 | 10 | 352 | 4.8 | 14.5 | 0.00 | 0.00 | 0.00 | 36 | 1015.9 |
| 20260501232050 | 10 | 352 | 4.8 | 11.3 | 0.00 | 0.00 | 0.00 | 39 | 1016.0 |
| 20260501231609 | 10 | 333 | 4.8 | 11.3 | 0.00 | 0.00 | 0.00 | 39 | 1016.0 |
| 20260501231053 | 10 | 5 | 1.6 | 8.0 | 0.00 | 0.00 | 0.00 | 40 | 1016.1 |
| 20260501230550 | 10 | 28 | 3.2 | 12.9 | 0.00 | 0.00 | 0.00 | 40 | 1016.0 |
| 20260501230057 | 10 | 0 | 6.4 | 14.5 | 0.00 | 0.00 | 0.00 | 37 | 1016.0 |
| 20260501225554 | 10 | 308 | 4.8 | 14.5 | 0.00 | 0.00 | 0.00 | 36 | 1016.0 |
| 20260501225049 | 10 | 333 | 8.0 | 14.5 | 0.00 | 0.00 | 0.00 | 38 | 1016.0 |
| 20260501224602 | 11 | 5 | 1.6 | 17.7 | 0.00 | 0.00 | 0.00 | 36 | 1016.1 |